Weather History for LEPA - November, 2014

Change the Weather History Date:

Thursday, November 6, 2014

  Actual Average Record
Temperature  
Mean Temperature 56 °F -  
Max Temperature 66 °F 63 °F 80 °F (1996)
Min Temperature 46 °F 45 °F 42 °F (1996)
Degree Days  
Heating Degree Days 9    
Growing Degree Days 6 (Base 50)    
Moisture  
Dew Point 48 °F    
Average Humidity 80    
Maximum Humidity 100    
Minimum Humidity 32    
Precipitation  
Precipitation 0.02 in 0.06 in - ()
Sea Level Pressure  
Sea Level Pressure 29.89 in    
Wind  
Wind Speed 2 mph ()    
Max Wind Speed 10 mph    
Max Gust Speed 14 mph    
Visibility 7.4 miles    
Events Rain , Thunderstorm    
Averages and records for this station are not official NWS values.
T = Trace of Precipitation, MM = Missing Value Source: Averaged Metar Reports

Daily Weather History Graph

Daily Weather History Graph

Search for Another Location

Airport or City:

Trip Planner

Search our weather history database for the weather conditions in past years. The results will help you decide how hot, cold, wet, or windy it might be!

Date:

Astronomy

Nov. 06, 2014 Rise Set
Actual Time 7:22 AM CET 5:42 PM CET
Civil Twilight 6:54 AM CET 6:10 PM CET
Nautical Twilight 6:22 AM CET 6:42 PM CET
Astronomical Twilight 5:50 AM CET 7:13 PM CET
Moon 5:38 PM CET (11/6) 6:37 AM CET (11/6)
Length of Visible Light 11h 15m
Length of Day
10h 19m
Full, 100% of the Moon is Illuminated
Nov 6
Full
Nov 6
Full
Nov 14
Last Quarter
Nov 22
New
Nov 29
First Quarter

Hourly Weather History & Observations

Time (CET) Temp. Dew Point Humidity Pressure Visibility Wind Dir Wind Speed Gust Speed Precip Events Conditions
12:00 AM 48 °F 46 °F 92% 29.83 in - Calm Calm - -  
12:00 AM 48.2 °F 48.2 °F 100% 29.83 in 6.2 mi Variable 1.2 mph - N/A Thunderstorm Partly Cloudy
12:30 AM 48.2 °F 44.6 °F 87% 29.83 in 6.2 mi Calm Calm - N/A Thunderstorm Partly Cloudy
1:00 AM 47 °F 46 °F 93% 29.85 in 9 mi West 1.2 mph - - Rain Rain
1:00 AM 48.2 °F 46.4 °F 93% 29.83 in 6.2 mi Calm Calm - N/A Thunderstorm Scattered Clouds
1:17 AM 50.0 °F 48.2 °F 94% 29.83 in 6.2 mi NW 3.5 mph - N/A Rain Heavy Rain
1:30 AM 50.0 °F 48.2 °F 94% 29.83 in 6.2 mi Calm Calm - N/A Rain Light Rain
2:00 AM 49 °F 48 °F 94% 29.83 in - ENE 3.5 mph - -   Unknown Precipitation
2:00 AM 50.0 °F 48.2 °F 94% 29.83 in 6.2 mi Variable 1.2 mph - N/A   Partly Cloudy
2:30 AM 48.2 °F 48.2 °F 100% 29.80 in 6.2 mi Variable 1.2 mph - N/A Thunderstorm Partly Cloudy
3:00 AM 47 °F 46 °F 95% 29.84 in - Calm Calm - -   Unknown Precipitation
3:00 AM 48.2 °F 46.4 °F 93% 29.83 in 6.2 mi Variable 1.2 mph - N/A   Partly Cloudy
3:30 AM 48.2 °F 46.4 °F 93% 29.83 in 6.2 mi Calm Calm - N/A   Partly Cloudy
4:00 AM 48 °F 47 °F 94% 29.83 in 9 mi East 8.1 mph - -   Partly Cloudy
4:00 AM 50.0 °F 46.4 °F 87% 29.83 in 6.2 mi East 5.8 mph - N/A   Partly Cloudy
4:30 AM 48.2 °F 46.4 °F 93% 29.83 in 6.2 mi Variable 2.3 mph - N/A   Partly Cloudy
5:00 AM 48 °F 46 °F 91% 29.85 in - North 6.9 mph - -  
5:00 AM 48.2 °F 46.4 °F 93% 29.83 in 6.2 mi North 3.5 mph - N/A   Partly Cloudy
5:30 AM 48.2 °F 46.4 °F 93% 29.83 in 6.2 mi North 4.6 mph - N/A   Partly Cloudy
6:00 AM 48 °F 46 °F 90% 29.85 in - NNE 3.5 mph - -  
6:00 AM 48.2 °F 46.4 °F 93% 29.83 in 6.2 mi Variable 2.3 mph - N/A   Partly Cloudy
6:30 AM 50.0 °F 46.4 °F 87% 29.83 in 6.2 mi Variable 2.3 mph - N/A   Partly Cloudy
7:00 AM 47 °F 45 °F 91% 29.86 in 16 mi Calm Calm - -   Partly Cloudy
7:00 AM 48.2 °F 46.4 °F 93% 29.86 in 6.2 mi Variable 2.3 mph - N/A   Partly Cloudy
7:30 AM 48.2 °F 46.4 °F 93% 29.86 in 6.2 mi NE 4.6 mph - N/A   Partly Cloudy
8:00 AM 50 °F 47 °F 88% 29.89 in - Calm Calm - -  
8:00 AM 50.0 °F 48.2 °F 94% 29.89 in 6.2 mi NE 6.9 mph - N/A Rain Rain
8:30 AM 51.8 °F 48.2 °F 88% 29.89 in 6.2 mi NE 6.9 mph - N/A   Scattered Clouds
9:00 AM 51 °F 48 °F 86% 29.89 in - Calm Calm - -   Unknown Precipitation
9:00 AM 51.8 °F 48.2 °F 88% 29.89 in 6.2 mi Calm Calm - N/A   Partly Cloudy
9:30 AM 51.8 °F 48.2 °F 88% 29.89 in 6.2 mi Calm Calm - N/A   Partly Cloudy
10:00 AM 58 °F 50 °F 68% 29.91 in 19 mi Calm Calm - -   Partly Cloudy
10:00 AM 57.2 °F 51.8 °F 82% 29.89 in 6.2 mi Variable 1.2 mph - N/A   Partly Cloudy
10:30 AM 60.8 °F 50.0 °F 68% 29.92 in 6.2 mi NE 3.5 mph - N/A   Partly Cloudy
11:00 AM 61 °F 47 °F 51% 29.92 in - ENE 8.1 mph - -  
11:00 AM 60.8 °F 48.2 °F 63% 29.92 in 6.2 mi NE 6.9 mph - N/A   Partly Cloudy
11:30 AM 62.6 °F 48.2 °F 59% 29.92 in 6.2 mi ENE 5.8 mph - N/A   Partly Cloudy
12:00 PM 64 °F 45 °F 38% 29.91 in - SE 2.3 mph - -  
12:00 PM 62.6 °F 44.6 °F 52% 29.89 in 6.2 mi Variable 2.3 mph - N/A   Partly Cloudy
12:30 PM 64.4 °F 44.6 °F 49% 29.89 in 6.2 mi West 1.2 mph 13.8 mph N/A   Partly Cloudy
1:00 PM 66 °F 43 °F 32% 29.90 in 19 mi Calm Calm - -   Partly Cloudy
1:00 PM 64.4 °F 44.6 °F 49% 29.89 in 6.2 mi Variable 1.2 mph - N/A   Partly Cloudy
1:30 PM 59.0 °F 50.0 °F 72% 29.89 in 6.2 mi WSW 10.4 mph - N/A Rain , Thunderstorm Rain
2:00 PM 60 °F 48 °F 55% 29.90 in - NNE 6.9 mph - -   Unknown Precipitation
2:00 PM 59.0 °F 46.4 °F 63% 29.89 in 6.2 mi NE 9.2 mph - N/A Rain , Thunderstorm Light Rain
2:30 PM 59.0 °F 50.0 °F 72% 29.89 in 6.2 mi NNE 9.2 mph - N/A   Partly Cloudy
3:00 PM 61 °F 49 °F 54% 29.90 in - East 3.5 mph - -  
3:00 PM 60.8 °F 50.0 °F 68% 29.89 in 6.2 mi NE 3.5 mph - N/A   Partly Cloudy
4:00 PM 62 °F 48 °F 49% 29.91 in 19 mi Calm Calm - -   Scattered Clouds
4:00 PM 62.6 °F 48.2 °F 59% 29.89 in 6.2 mi Calm Calm - N/A   Partly Cloudy
4:30 PM 62.6 °F 48.2 °F 59% 29.89 in 6.2 mi Variable 2.3 mph - N/A   Partly Cloudy
5:00 PM 63 °F 48 °F 48% 29.92 in - Calm Calm - -  
5:00 PM 62.6 °F 50.0 °F 63% 29.92 in 6.2 mi Variable 1.2 mph - N/A   Partly Cloudy
5:30 PM 60.8 °F 48.2 °F 63% 29.92 in 6.2 mi SW 2.3 mph - N/A   Partly Cloudy
6:00 PM 59 °F 48 °F 59% 29.93 in - West 2.3 mph - -  
6:00 PM 59.0 °F 50.0 °F 72% 29.92 in 6.2 mi Variable 1.2 mph - N/A   Partly Cloudy
6:30 PM 57.2 °F 50.0 °F 77% 29.92 in 6.2 mi Variable 1.2 mph - N/A   Partly Cloudy
7:00 PM 57 °F 47 °F 61% 29.94 in 16 mi West 3.5 mph - -   Scattered Clouds
7:00 PM 59.0 °F 48.2 °F 67% 29.92 in 6.2 mi WSW 3.5 mph - N/A   Partly Cloudy
7:30 PM 53.6 °F 50.0 °F 88% 29.95 in 6.2 mi Calm Calm - N/A   Partly Cloudy
8:00 PM 52 °F 49 °F 85% 29.96 in - Calm Calm - -  
8:00 PM 51.8 °F 50.0 °F 94% 29.95 in 6.2 mi Calm Calm - N/A   Partly Cloudy
8:30 PM 51.8 °F 48.2 °F 88% 29.95 in 6.2 mi Calm Calm - N/A   Partly Cloudy
9:00 PM 49 °F 47 °F 92% 29.96 in - Calm Calm - -  
9:00 PM 50.0 °F 48.2 °F 94% 29.95 in 6.2 mi Calm Calm - N/A   Partly Cloudy
9:30 PM 50.0 °F 48.2 °F 94% 29.95 in 6.2 mi SSE 2.3 mph - N/A   Partly Cloudy
10:00 PM 48 °F 47 °F 95% 29.96 in 12 mi Calm Calm - -   Partly Cloudy
10:00 PM 48.2 °F 48.2 °F 100% 29.95 in 6.2 mi North 2.3 mph - N/A   Partly Cloudy
10:30 PM 50.0 °F 48.2 °F 94% 29.95 in 6.2 mi Variable 1.2 mph - N/A   Scattered Clouds
11:00 PM 51 °F 49 °F 88% 29.95 in - North 4.6 mph - -   Unknown Precipitation
11:00 PM 51.8 °F 50.0 °F 94% 29.95 in 6.2 mi Calm Calm - N/A   Scattered Clouds
11:30 PM 50.0 °F 48.2 °F 94% 29.92 in 6.2 mi Variable 2.3 mph - N/A   Partly Cloudy